Regional Weather Roundup
Issued by NWS

Home | Current Version | Previous Version | Text Only | Print | Product List | Glossary On
Versions: 1 2 3 4 5 6 7 8 9 10 11 12 13 14 15 16 17 18 19 20 21 22 23 24 25 26 27 28 29 30 31 32 33 34 35 36 37 38 39 40 41 42 43 44 45 46 47 48 49 50
000
ASUS45 KABQ 240610
RWRNM
NEW MEXICO REGIONAL WEATHER ROUNDUP
NATIONAL WEATHER SERVICE ALBUQUERQUE NM
1200 AM MDT WED MAY 24 2017

NOTE: "FAIR" MEANS FEW OR NO CLOUDS BELOW 12,000 FEET AGL WITH NO
       SIGNIFICANT WEATHER OR OBSTRUCTIONS TO VISION.

      THIS PRODUCT IS RELEASED AS TWO VERSIONS.  ONE VERSION NEAR
      THE TOP OF THE HOUR CONTAINING PRELIMINARY DATA FROM ALBUQUERQUE
      AND OTHER STATIONS.  A FINAL VERSION WITH ADDITIONAL DATA IS
      ISSUED ABOUT 10 MINUTES AFTER THE HOUR.

NMZ501-503-504-510>518-240700-
NORTHWEST PLATEAU/NORTHCENTRAL MOUNTAINS

CITY           SKY/WX    TMP DP  RH WIND       PRES   REMARKS
FARMINGTON     FAIR      54  24  31 NW6       30.08F
6HR MIN TEMP:  54; 6HR MAX TEMP:  75;

LOS ALAMOS     FAIR      51  32  48 S12       30.17S
SANTA FE       FAIR      51  35  54 SE15      30.14S
6HR MIN TEMP:  51; 6HR MAX TEMP:  72;

TAOS           FAIR      45  25  45 E6        30.16S
ANGEL FIRE     FAIR      34  29  83 CALM      30.22F

$$
NMZ402-403-502-505>509-240700-
WESTCENTRAL MOUNTAINS/SOUTHWEST MOUNTAINS

CITY           SKY/WX    TMP DP  RH WIND       PRES   REMARKS
GALLUP         FAIR      47  24  40 NE5       30.18F
6HR MIN TEMP:  47; 6HR MAX TEMP:  73;

GRANTS         FAIR      55  22  27 N10       30.17F
SILVER CITY    FAIR      57  22  25 NW8       30.08S

$$
NMZ407-409-411-412-240700-
SOUTHERN DESERTS

CITY           SKY/WX    TMP DP  RH WIND       PRES   REMARKS
DEMING         FAIR      67  37  33 E10       30.01R
6HR MIN TEMP:  67; 6HR MAX TEMP:  92;

LAS CRUCES     FAIR      65  37  34 SE10G17   30.03S
HOLLOMAN AFB   FAIR      63  37  37 CALM      30.06S
ALAMOGORDO     FAIR      59  32  36 N3        30.04R
T OR C         FAIR      67  25  20 NW5       30.04S
6HR MIN TEMP:  67; 6HR MAX TEMP:  85;


$$
NMZ519>523-240700-
CENTRAL VALLEYS/CENTRAL HIGHLANDS

CITY           SKY/WX    TMP DP  RH WIND       PRES   REMARKS
ALBUQUERQUE    FAIR      67  22  18 N7        30.07F
6HR MIN TEMP:  67; 6HR MAX TEMP:  78;

MORIARTY ARPT  FAIR      49  34  54 CALM      30.17S
6HR MIN TEMP:  49; 6HR MAX TEMP:  70;

CLINES CORNERS FAIR      43  31  62 E12       30.19F
6HR MIN TEMP:  43; 6HR MAX TEMP:  66;

BELEN          FAIR      57  21  24 W10       30.07S
6HR MIN TEMP:  56; 6HR MAX TEMP:  80;

SOCORRO        FAIR      57  16  19 W3        30.06S
6HR MIN TEMP:  57; 6HR MAX TEMP:  80;


$$
NMZ524>526-539-540-240700-
SOUTHCENTRAL MOUNTAINS

CITY           SKY/WX    TMP DP  RH WIND       PRES   REMARKS
RUIDOSO        FAIR      45  30  57 SE7       30.20F

$$
NMZ527>531-240700-
NORTHEAST HIGHLANDS/NORTHEAST PLAINS

CITY           SKY/WX    TMP DP  RH WIND       PRES   REMARKS
LAS VEGAS      FAIR      43  32  65 SW6       30.18F
6HR MIN TEMP:  39; 6HR MAX TEMP:  58;

RATON          FAIR      44  32  62 NE3       30.13F
6HR MIN TEMP:  40; 6HR MAX TEMP:  56;

CLAYTON        FAIR      43  35  73 NW9       30.09F
6HR MIN TEMP:  42; 6HR MAX TEMP:  60;


$$
NMZ532>537-240700-
EASTCENTRAL PLAINS

CITY           SKY/WX    TMP DP  RH WIND       PRES   REMARKS
SANTA ROSA     FAIR      47  37  66 S3        30.11F
TUCUMCARI      CLOUDY    53  44  71 W7        30.06F
6HR MIN TEMP:  52; 6HR MAX TEMP:  69;

CANNON AFB     FAIR      52  42  70 NW5       30.11S
6HR MIN TEMP:  49; 6HR MAX TEMP:  66;

CLOVIS AIRPORT CLOUDY    52  37  58 NW5       30.09F

$$
NMZ028-029-538-240700-
SOUTHEAST PLAINS

CITY           SKY/WX    TMP DP  RH WIND       PRES   REMARKS
ROSWELL        FAIR      56  31  38 W6        30.08S
6HR MIN TEMP:  54; 6HR MAX TEMP:  71;

ARTESIA        FAIR      55  32  41 CALM      30.09S
CARLSBAD       FAIR      55  44  66 SW10      30.07R
6HR MIN TEMP:  54; 6HR MAX TEMP:  70;

HOBBS          FAIR      52  32  46 CALM      30.10S


$$




USA.gov is the U.S. government's official web portal to all federal, state and local government web resources and services.